This demonstration page uses our WeatherBlox Daily Observations layout. Learn more.

Left ArrowRight Arrow

Hourly Observations for June 20, 2020

Temp ( °F °C ) Dew Point ( °F °C ) Humidity (%) Winds ( mph kmh ) Pressure ( in mb ) Visibility ( mi km ) Precip ( " mm )
12:53 am 00:53 Clear 79 26.1 56 13.3 45 45 SE 8 13 29.75 1008 10 16 0.00 0.00
1:53 am 01:53 Clear 77 25 56 13.3 48 48 SE 14 22 29.75 1007 10 16 0.00 0.00
2:53 am 02:53 Clear 76 24.4 54 12.2 47 47 ESE 14 22 29.74 1007 10 16 0.00 0.00
3:53 am 03:53 Clear 76 24.4 57 13.9 52 52 ESE 17 28 29.75 1008 10 16 0.00 0.00
4:53 am 04:53 Clear 76 24.4 59 15 56 56 SE 18 30 29.76 1008 10 16 0.00 0.00
5:53 am 05:53 Clear 75 23.9 63 17.2 66 66 SE 22 35 29.78 1008 10 16 0.00 0.00
6:53 am 06:53 Sunny 74 23.3 65 18.3 74 74 SE 18 30 29.80 1009 10 16 0.00 0.00
7:53 am 07:53 Sunny 76 24.4 66 18.9 72 72 SE 20 31 29.80 1009 10 16 0.00 0.00
8:53 am 08:53 Sunny 77 25 67 19.4 71 71 SE 22 35 29.82 1010 10 16 0.00 0.00
9:53 am 09:53 Sunny 79 26.1 66 18.9 65 65 SE 15 24 29.84 1011 10 16 0.00 0.00
10:53 am 10:53 Sunny 84 28.9 66 18.9 55 55 ESE 12 19 29.85 1011 10 16 0.00 0.00
11:53 am 11:53 Sunny 87 30.6 65 18.3 48 48 E 8 13 29.85 1011 10 16 0.00 0.00
12:53 pm 12:53 Sunny 91 32.8 63 17.2 39 39 VRB 3 6 29.84 1011 10 16 0.00 0.00
1:53 pm 13:53 Sunny 94 34.4 61 16.1 33 33 ENE 7 11 29.81 1010 10 16 0.00 0.00
2:53 pm 14:53 Sunny 97 36.1 56 13.3 25 25 ESE 8 13 29.78 1009 10 16 0.00 0.00
3:53 pm 15:53 Mostly Sunny 98 36.7 54 12.2 23 23 VRB 5 7 29.76 1008 10 16 0.00 0.00
4:53 pm 16:53 Mostly Cloudy 98 36.7 53 11.7 22 22 ESE 8 13 29.73 1007 10 16 0.00 0.00
5:10 pm 17:10 Partly Cloudy with Nearby Thunderstorms 100 37.8 53 11.7 21 21 VRB 6 9 29.60 1002 10 16 0.00 0.00
5:25 pm 17:25 Mostly Sunny 98 36.7 51 10.6 20 20 SW 3 6 29.60 1002 10 16 0.00 0.00
5:53 pm 17:53 Mostly Sunny 99 37.2 50 10 19 19 VRB 6 9 29.70 1006 10 16 0.00 0.00
6:28 pm 18:28 Sunny 98 36.7 58 14.4 26 26 SSE 17 28 29.59 1002 10 16 0.00 0.00
6:53 pm 18:53 Sunny 97 36.1 58 14.4 27 27 SSE 17 28 29.69 1005 10 16 0.00 0.00
7:53 pm 19:53 Sunny 93 33.9 60 15.6 33 33 SE 18 30 29.71 1006 10 16 0.00 0.00
8:53 pm 20:53 Sunny 90 32.2 62 16.7 39 39 SE 17 28 29.74 1007 10 16 0.00 0.00
9:53 pm 21:53 Clear 88 31.1 61 16.1 40 40 SE 23 37 29.76 1008 10 16 0.00 0.00
10:53 pm 22:53 Clear 85 29.4 62 16.7 46 46 SSE 20 31 29.77 1008 10 16 0.00 0.00
11:53 pm 23:53 Clear 83 28.3 64 17.8 53 53 SSE 14 22 29.77 1008 10 16 0.00 0.00

Powered by AerisWeather